| time (UTC) | temp F | wind direction | speed MPH | gust MPH | rain 1hr in | rain 24hr in | rain mn in | humidity % | barometer mb |
| 20260508063016 | 43 | 315 | 1.0 | 3.0 | 0.00 | 0.00 | 0.00 | 66 | 1007.5 |
| 20260508062056 | 44 | 0.0 | 1.0 | 0.00 | 0.00 | 0.00 | 65 | 1007.3 | |
| 20260508061016 | 44 | 0.0 | 0.0 | 0.00 | 0.00 | 0.00 | 64 | 1007.3 | |
| 20260508060016 | 44 | 0.0 | 1.0 | 0.00 | 0.00 | 0.00 | 63 | 1007.5 | |
| 20260508055016 | 45 | 0.0 | 1.0 | 0.00 | 0.00 | 0.00 | 62 | 1007.6 | |
| 20260508054016 | 45 | 0.0 | 1.0 | 0.00 | 0.00 | 0.00 | 61 | 1007.6 | |
| 20260508053016 | 46 | 0.0 | 1.0 | 0.00 | 0.00 | 0.00 | 60 | 1007.7 | |
| 20260508052036 | 46 | 0.0 | 1.0 | 0.00 | 0.00 | 0.00 | 59 | 1007.9 | |
| 20260508051016 | 46 | 0.0 | 1.0 | 0.00 | 0.00 | 0.00 | 58 | 1007.9 | |
| 20260508050016 | 47 | 0.0 | 1.0 | 0.00 | 0.00 | 0.00 | 58 | 1008.0 | |
| 20260508045016 | 47 | 0.0 | 1.0 | 0.00 | 0.00 | 0.00 | 57 | 1008.1 | |
| 20260508044036 | 48 | 315 | 1.0 | 2.0 | 0.00 | 0.00 | 0.00 | 56 | 1008.1 |
| 20260508043016 | 48 | 315 | 1.0 | 3.0 | 0.00 | 0.00 | 0.00 | 55 | 1008.2 |
| 20260508042036 | 48 | 315 | 1.0 | 3.0 | 0.00 | 0.00 | 0.00 | 55 | 1008.1 |
| 20260508041015 | 48 | 293 | 1.0 | 4.0 | 0.00 | 0.01 | 0.00 | 54 | 1008.1 |
| 20260508040016 | 49 | 315 | 1.0 | 3.0 | 0.00 | 0.01 | 0.01 | 53 | 1008.1 |
| 20260508035016 | 49 | 293 | 1.0 | 4.0 | 0.00 | 0.03 | 0.01 | 53 | 1008.1 |
| 20260508034016 | 49 | 293 | 1.0 | 3.0 | 0.00 | 0.03 | 0.01 | 52 | 1008.1 |
| 20260508033016 | 49 | 315 | 1.0 | 3.0 | 0.00 | 0.03 | 0.01 | 52 | 1008.1 |
| 20260508032016 | 49 | 293 | 1.0 | 4.0 | 0.00 | 0.03 | 0.01 | 51 | 1008.0 |
| 20260508031016 | 50 | 270 | 1.0 | 3.0 | 0.00 | 0.03 | 0.01 | 52 | 1007.9 |
| 20260508030016 | 50 | 293 | 1.0 | 3.0 | 0.00 | 0.03 | 0.01 | 52 | 1007.8 |
| 20260508025036 | 50 | 270 | 1.0 | 2.0 | 0.00 | 0.03 | 0.01 | 50 | 1007.9 |
| 20260508024016 | 50 | 270 | 1.0 | 3.0 | 0.00 | 0.03 | 0.01 | 50 | 1007.9 |
| 20260508023036 | 51 | 248 | 1.0 | 4.0 | 0.00 | 0.03 | 0.01 | 49 | 1007.8 |
| 20260508022016 | 51 | 248 | 1.0 | 5.0 | 0.00 | 0.03 | 0.01 | 49 | 1007.8 |
| 20260508021016 | 51 | 225 | 1.0 | 6.0 | 0.00 | 0.03 | 0.01 | 49 | 1007.9 |
| 20260508020016 | 52 | 225 | 1.0 | 3.0 | 0.00 | 0.03 | 0.01 | 48 | 1007.9 |
| 20260508015036 | 52 | 225 | 1.0 | 4.0 | 0.00 | 0.03 | 0.01 | 47 | 1007.8 |
| 20260508014016 | 52 | 248 | 1.0 | 5.0 | 0.00 | 0.03 | 0.01 | 47 | 1007.6 |
| 20260508013016 | 53 | 0.0 | 4.0 | 0.00 | 0.03 | 0.01 | 46 | 1007.5 | |
| 20260508012016 | 53 | 248 | 1.0 | 7.0 | 0.00 | 0.03 | 0.01 | 45 | 1007.3 |
| 20260508011016 | 53 | 248 | 1.0 | 5.0 | 0.00 | 0.03 | 0.01 | 45 | 1007.2 |
| 20260508010016 | 54 | 293 | 1.0 | 4.0 | 0.00 | 0.03 | 0.01 | 44 | 1007.0 |
| 20260508005016 | 54 | 270 | 1.0 | 5.0 | 0.00 | 0.03 | 0.01 | 43 | 1006.9 |
| 20260508004036 | 55 | 315 | 1.0 | 4.0 | 0.00 | 0.03 | 0.01 | 43 | 1006.7 |
| 20260508003036 | 55 | 338 | 1.0 | 5.0 | 0.00 | 0.03 | 0.01 | 42 | 1006.6 |
| 20260508002036 | 55 | 270 | 1.0 | 5.0 | 0.00 | 0.03 | 0.01 | 41 | 1006.4 |
| 20260508001015 | 56 | 315 | 2.0 | 7.0 | 0.00 | 0.03 | 0.01 | 40 | 1006.4 |
| 20260508000016 | 56 | 315 | 2.0 | 6.0 | 0.00 | 0.03 | 0.01 | 38 | 1006.4 |
| 20260507235016 | 57 | 315 | 2.0 | 7.0 | 0.00 | 0.03 | 0.01 | 37 | 1006.2 |
| 20260507234036 | 58 | 315 | 3.0 | 7.0 | 0.00 | 0.03 | 0.01 | 36 | 1006.1 |
| 20260507233015 | 58 | 315 | 3.0 | 8.0 | 0.00 | 0.03 | 0.01 | 36 | 1006.1 |
| 20260507232016 | 58 | 315 | 4.0 | 8.0 | 0.00 | 0.03 | 0.01 | 35 | 1005.9 |
| 20260507231016 | 59 | 315 | 3.0 | 9.0 | 0.00 | 0.04 | 0.01 | 35 | 1005.9 |
| 20260507230016 | 59 | 315 | 4.0 | 8.0 | 0.00 | 0.06 | 0.01 | 34 | 1005.9 |
| 20260507225015 | 59 | 315 | 3.0 | 8.0 | 0.00 | 0.06 | 0.01 | 34 | 1005.8 |
| 20260507224035 | 60 | 315 | 2.0 | 5.0 | 0.00 | 0.07 | 0.01 | 34 | 1005.7 |
| 20260507223015 | 60 | 315 | 4.0 | 8.0 | 0.00 | 0.07 | 0.01 | 34 | 1005.6 |
| 20260507222015 | 60 | 293 | 3.0 | 8.0 | 0.00 | 0.07 | 0.01 | 33 | 1005.6 |
| 20260507221015 | 61 | 315 | 3.0 | 10.0 | 0.00 | 0.08 | 0.01 | 33 | 1005.5 |
| 20260507220015 | 61 | 293 | 4.0 | 14.0 | 0.00 | 0.08 | 0.01 | 33 | 1005.4 |
| 20260507215015 | 61 | 270 | 4.0 | 10.0 | 0.00 | 0.08 | 0.01 | 32 | 1005.4 |
| 20260507214015 | 61 | 293 | 3.0 | 9.0 | 0.00 | 0.08 | 0.01 | 33 | 1005.3 |
| 20260507213015 | 61 | 315 | 4.0 | 10.0 | 0.00 | 0.08 | 0.01 | 33 | 1005.2 |
| 20260507212016 | 62 | 315 | 3.0 | 8.0 | 0.00 | 0.08 | 0.01 | 34 | 1005.2 |
| 20260507211015 | 62 | 315 | 4.0 | 10.0 | 0.00 | 0.08 | 0.01 | 32 | 1005.2 |
| 20260507210017 | 62 | 315 | 6.0 | 15.0 | 0.00 | 0.08 | 0.01 | 31 | 1005.2 |
| 20260507205017 | 62 | 315 | 5.0 | 13.0 | 0.00 | 0.09 | 0.01 | 30 | 1005.2 |
| 20260507204017 | 63 | 315 | 5.0 | 18.0 | 0.00 | 0.09 | 0.01 | 34 | 1005.1 |
| 20260507203017 | 63 | 315 | 5.0 | 18.0 | 0.00 | 0.10 | 0.01 | 32 | 1005.0 |
| 20260507202037 | 63 | 315 | 6.0 | 12.0 | 0.00 | 0.10 | 0.01 | 32 | 1005.0 |
| 20260507201017 | 63 | 315 | 5.0 | 14.0 | 0.00 | 0.10 | 0.01 | 33 | 1005.0 |
| 20260507200017 | 63 | 315 | 5.0 | 16.0 | 0.00 | 0.11 | 0.01 | 32 | 1005.0 |
| 20260507195017 | 63 | 293 | 5.0 | 15.0 | 0.00 | 0.11 | 0.01 | 32 | 1005.1 |
| 20260507194017 | 64 | 270 | 4.0 | 14.0 | 0.00 | 0.11 | 0.01 | 31 | 1005.3 |
| 20260507193017 | 64 | 338 | 5.0 | 15.0 | 0.00 | 0.12 | 0.01 | 32 | 1005.4 |
| 20260507192037 | 63 | 338 | 4.0 | 8.0 | 0.00 | 0.12 | 0.01 | 32 | 1005.4 |
| 20260507191017 | 63 | 338 | 5.0 | 13.0 | 0.00 | 0.13 | 0.01 | 33 | 1005.6 |
| 20260507190017 | 63 | 338 | 5.0 | 10.0 | 0.00 | 0.13 | 0.01 | 31 | 1005.6 |
| 20260507185017 | 64 | 293 | 3.0 | 9.0 | 0.00 | 0.14 | 0.01 | 31 | 1005.7 |
| 20260507184017 | 63 | 315 | 5.0 | 12.0 | 0.00 | 0.14 | 0.01 | 32 | 1005.9 |
| 20260507183018 | 62 | 315 | 7.0 | 14.0 | 0.00 | 0.14 | 0.01 | 32 | 1005.9 |
| 20260507182017 | 62 | 338 | 6.0 | 15.0 | 0.00 | 0.14 | 0.01 | 32 | 1005.9 |
| 20260507181017 | 63 | 293 | 4.0 | 9.0 | 0.00 | 0.14 | 0.01 | 31 | 1006.0 |
| 20260507180017 | 63 | 315 | 6.0 | 17.0 | 0.00 | 0.14 | 0.01 | 32 | 1006.1 |
| 20260507175017 | 63 | 293 | 5.0 | 12.0 | 0.00 | 0.14 | 0.01 | 32 | 1006.0 |
| 20260507174057 | 63 | 270 | 4.0 | 12.0 | 0.00 | 0.14 | 0.01 | 32 | 1006.0 |
| 20260507173017 | 63 | 248 | 4.0 | 9.0 | 0.00 | 0.14 | 0.01 | 35 | 1005.9 |
| 20260507172017 | 62 | 315 | 5.0 | 14.0 | 0.00 | 0.14 | 0.01 | 35 | 1005.9 |
| 20260507171017 | 63 | 315 | 4.0 | 11.0 | 0.00 | 0.14 | 0.01 | 34 | 1006.1 |
| 20260507170017 | 62 | 315 | 4.0 | 9.0 | 0.00 | 0.14 | 0.01 | 40 | 1006.2 |
| 20260507165017 | 62 | 203 | 4.0 | 11.0 | 0.00 | 0.14 | 0.01 | 41 | 1006.5 |
| 20260507164017 | 60 | 315 | 7.0 | 15.0 | 0.00 | 0.14 | 0.01 | 42 | 1006.6 |
| 20260507163017 | 60 | 315 | 6.0 | 13.0 | 0.00 | 0.14 | 0.01 | 43 | 1006.7 |
| 20260507162037 | 60 | 315 | 6.0 | 12.0 | 0.00 | 0.14 | 0.01 | 45 | 1006.8 |
| 20260507161017 | 60 | 315 | 5.0 | 11.0 | 0.00 | 0.14 | 0.01 | 47 | 1006.9 |
| 20260507160017 | 59 | 293 | 5.0 | 9.0 | 0.00 | 0.14 | 0.01 | 53 | 1006.9 |
| 20260507155016 | 60 | 315 | 4.0 | 12.0 | 0.00 | 0.14 | 0.01 | 52 | 1006.9 |
| 20260507154057 | 59 | 248 | 4.0 | 10.0 | 0.00 | 0.14 | 0.01 | 56 | 1006.9 |
| 20260507153058 | 59 | 315 | 4.0 | 16.0 | 0.00 | 0.14 | 0.01 | 54 | 1006.9 |
| 20260507152017 | 59 | 338 | 4.0 | 9.0 | 0.00 | 0.14 | 0.01 | 58 | 1007.1 |
| 20260507151057 | 58 | 338 | 3.0 | 8.0 | 0.00 | 0.14 | 0.01 | 58 | 1007.1 |
| 20260507150017 | 58 | 315 | 3.0 | 8.0 | 0.00 | 0.14 | 0.01 | 59 | 1007.4 |
| 20260507145017 | 58 | 315 | 2.0 | 6.0 | 0.00 | 0.14 | 0.01 | 61 | 1007.4 |
| 20260507144037 | 58 | 338 | 3.0 | 7.0 | 0.00 | 0.14 | 0.01 | 59 | 1007.5 |
| 20260507143017 | 58 | 338 | 3.0 | 6.0 | 0.00 | 0.14 | 0.01 | 58 | 1007.4 |
| 20260507142017 | 58 | 315 | 2.0 | 6.0 | 0.00 | 0.14 | 0.01 | 60 | 1007.4 |
| 20260507141016 | 58 | 338 | 3.0 | 9.0 | 0.00 | 0.14 | 0.01 | 59 | 1007.5 |
| 20260507140037 | 58 | 315 | 3.0 | 9.0 | 0.00 | 0.14 | 0.01 | 61 | 1007.5 |
| 20260507135017 | 57 | 338 | 3.0 | 7.0 | 0.00 | 0.14 | 0.01 | 63 | 1007.4 |
| 20260507134018 | 58 | 23 | 2.0 | 4.0 | 0.00 | 0.14 | 0.01 | 64 | 1007.3 |
| 20260507133016 | 56 | 248 | 2.0 | 7.0 | 0.00 | 0.14 | 0.01 | 66 | 1007.5 |
| 20260507132017 | 56 | 315 | 2.0 | 5.0 | 0.00 | 0.14 | 0.01 | 69 | 1007.7 |
| 20260507131016 | 55 | 338 | 2.0 | 7.0 | 0.00 | 0.14 | 0.01 | 69 | 1007.7 |
| 20260507130017 | 54 | 225 | 3.0 | 7.0 | 0.00 | 0.14 | 0.01 | 71 | 1007.8 |
| 20260507125017 | 54 | 293 | 2.0 | 7.0 | 0.00 | 0.14 | 0.01 | 74 | 1007.9 |
| 20260507124016 | 53 | 315 | 3.0 | 8.0 | 0.00 | 0.14 | 0.01 | 75 | 1007.8 |
| 20260507123016 | 52 | 315 | 3.0 | 8.0 | 0.00 | 0.14 | 0.01 | 78 | 1007.9 |
| 20260507122016 | 51 | 315 | 2.0 | 8.0 | 0.00 | 0.14 | 0.01 | 80 | 1008.0 |
| 20260507121016 | 50 | 315 | 2.0 | 7.0 | 0.00 | 0.14 | 0.01 | 81 | 1007.9 |
| 20260507120017 | 51 | 315 | 2.0 | 5.0 | 0.00 | 0.14 | 0.01 | 81 | 1008.0 |
| 20260507115016 | 50 | 315 | 2.0 | 5.0 | 0.00 | 0.14 | 0.01 | 83 | 1007.9 |
| 20260507114016 | 50 | 315 | 2.0 | 5.0 | 0.00 | 0.14 | 0.01 | 84 | 1007.8 |
| 20260507113016 | 49 | 293 | 1.0 | 6.0 | 0.00 | 0.14 | 0.01 | 85 | 1007.9 |
| 20260507112016 | 49 | 338 | 1.0 | 4.0 | 0.00 | 0.14 | 0.01 | 85 | 1007.8 |
| 20260507111016 | 49 | 23 | 1.0 | 4.0 | 0.00 | 0.14 | 0.01 | 85 | 1007.6 |
| 20260507110153 | 49 | 315 | 1.0 | 4.0 | 0.00 | 0.14 | 0.03 | 85 | 1007.7 |
| 20260507105036 | 48 | 338 | 1.0 | 3.0 | 0.00 | 0.14 | 0.01 | 85 | 1007.8 |
| 20260507104036 | 48 | 315 | 2.0 | 7.0 | 0.00 | 0.14 | 0.01 | 85 | 1007.4 |
| 20260507103036 | 48 | 338 | 2.0 | 6.0 | 0.00 | 0.14 | 0.01 | 86 | 1007.1 |
| 20260507102017 | 48 | 338 | 2.0 | 4.0 | 0.00 | 0.14 | 0.01 | 87 | 1007.0 |
| 20260507101016 | 48 | 338 | 1.0 | 5.0 | 0.00 | 0.14 | 0.01 | 88 | 1006.8 |
| 20260507100016 | 48 | 315 | 2.0 | 6.0 | 0.00 | 0.14 | 0.01 | 88 | 1007.0 |
| 20260507095016 | 49 | 315 | 2.0 | 5.0 | 0.00 | 0.14 | 0.01 | 87 | 1006.8 |
| 20260507094016 | 49 | 0.0 | 5.0 | 0.00 | 0.14 | 0.01 | 87 | 1007.4 | |
| 20260507093016 | 49 | 315 | 1.0 | 4.0 | 0.00 | 0.14 | 0.01 | 87 | 1006.9 |
| 20260507092017 | 49 | 315 | 1.0 | 2.0 | 0.00 | 0.14 | 0.01 | 86 | 1007.2 |
| 20260507091016 | 49 | 293 | 1.0 | 4.0 | 0.00 | 0.14 | 0.01 | 86 | 1007.1 |
| 20260507090016 | 49 | 315 | 1.0 | 3.0 | 0.00 | 0.14 | 0.01 | 86 | 1007.6 |
| 20260507085016 | 49 | 293 | 1.0 | 3.0 | 0.00 | 0.14 | 0.01 | 86 | 1007.2 |
| 20260507084016 | 50 | 315 | 2.0 | 6.0 | 0.00 | 0.14 | 0.01 | 87 | 1007.0 |
| 20260507083016 | 50 | 315 | 1.0 | 5.0 | 0.00 | 0.14 | 0.01 | 88 | 1007.0 |
| 20260507082016 | 50 | 315 | 1.0 | 4.0 | 0.00 | 0.14 | 0.01 | 88 | 1006.8 |
| 20260507081016 | 50 | 315 | 1.0 | 3.0 | 0.00 | 0.14 | 0.01 | 88 | 1006.8 |
| 20260507080016 | 51 | 315 | 1.0 | 7.0 | 0.00 | 0.14 | 0.01 | 88 | 1006.7 |
| 20260507075016 | 51 | 315 | 2.0 | 6.0 | 0.00 | 0.14 | 0.01 | 88 | 1007.1 |
| 20260507074016 | 52 | 315 | 1.0 | 5.0 | 0.00 | 0.14 | 0.01 | 89 | 1006.8 |
| 20260507073036 | 52 | 338 | 1.0 | 3.0 | 0.00 | 0.14 | 0.01 | 89 | 1006.9 |
| 20260507072036 | 52 | 338 | 1.0 | 3.0 | 0.00 | 0.14 | 0.01 | 89 | 1006.5 |
| 20260507071016 | 52 | 315 | 1.0 | 4.0 | 0.00 | 0.14 | 0.01 | 89 | 1006.4 |
| 20260507070016 | 52 | 0.0 | 3.0 | 0.00 | 0.14 | 0.01 | 88 | 1006.3 | |
| 20260507065016 | 52 | 315 | 1.0 | 3.0 | 0.00 | 0.14 | 0.01 | 87 | 1005.9 |
| 20260507064016 | 52 | 0.0 | 2.0 | 0.00 | 0.14 | 0.01 | 87 | 1006.1 |